Satellite: CO-66
Catalog number: 32791
Epoch time:      11187.73809645
Element set:    0025
Inclination:      097.8465 deg
RA of node:       251.1254 deg
Eccentricity:    0.0017476
Arg of perigee:   110.7202 deg
Mean anomaly:     249.5919 deg
Mean motion:   14.82161675 rev/day
Decay rate:       5.64e-06 rev/day^2
Epoch rev:           17240
Checksum:              317

Satellite: RS-30
Catalog number: 32953
Epoch time:      11188.43067285
Element set:     881
Inclination:      082.5018 deg
RA of node:       150.1391 deg
Eccentricity:    0.0019078
Arg of perigee:   347.8156 deg
Mean anomaly:     012.2461 deg
Mean motion:   12.43014010 rev/day
Decay rate:        1.0e-07 rev/day^2
Epoch rev:           14160
Checksum:              255

Satellite: TACSAT-3
Catalog number: 35001
Epoch time:      11187.91000131
Element set:    0636
Inclination:      040.4543 deg
RA of node:       052.9196 deg
Eccentricity:    0.0022955
Arg of perigee:   353.2435 deg
Mean anomaly:     006.8076 deg
Mean motion:   15.49572501 rev/day
Decay rate:     1.1533e-04 rev/day^2
Epoch rev:           12014
Checksum:              255

Satellite: PHARMSAT
Catalog number: 35002
Epoch time:      11188.78560602
Element set:     591
Inclination:      040.4690 deg
RA of node:       045.4631 deg
Eccentricity:    0.0024929
Arg of perigee:   007.3463 deg
Mean anomaly:     352.7738 deg
Mean motion:   15.49086808 rev/day
Decay rate:      9.798e-05 rev/day^2
Epoch rev:           12030
Checksum:              304

Satellite: HAWKSAT1
Catalog number: 35003
Epoch time:      11187.91116398
Element set:    0679
Inclination:      040.4542 deg
RA of node:       018.5283 deg
Eccentricity:    0.0021123
Arg of perigee:   017.4776 deg
Mean anomaly:     342.6766 deg
Mean motion:   15.68163341 rev/day
Decay rate:     6.3812e-04 rev/day^2
Epoch rev:           12052
Checksum:              286

Satellite: CP6
Catalog number: 35004
Epoch time:      11187.89753893
Element set:    0681
Inclination:      040.4528 deg
RA of node:       008.3502 deg
Eccentricity:    0.0018050
Arg of perigee:   015.6239 deg
Mean anomaly:     344.5146 deg
Mean motion:   15.76945206 rev/day
Decay rate:    1.18591e-03 rev/day^2
Epoch rev:           12062
Checksum:              298

Satellite: METEOR-M
Catalog number: 35865
Epoch time:      11188.55899087
Element set:     525
Inclination:      098.7042 deg
RA of node:       243.4228 deg
Eccentricity:    0.0002277
Arg of perigee:   353.6303 deg
Mean anomaly:     006.4845 deg
Mean motion:   14.21840356 rev/day
Decay rate:       1.76e-06 rev/day^2
Epoch rev:            9348
Checksum:              314

Satellite: RS-38
Catalog number: 35869
Epoch time:      11188.48619085
Element set:     519
Inclination:      098.7011 deg
RA of node:       243.3854 deg
Eccentricity:    0.0004464
Arg of perigee:   344.1071 deg
Mean anomaly:     015.9966 deg
Mean motion:   14.22015879 rev/day
Decay rate:       1.77e-06 rev/day^2
Epoch rev:            9348
Checksum:              334

/EX


_______________________________________________
Via the Keps mailing list courtesy of AMSAT-NA
http://amsat.org/mailman/listinfo/keps

--- ViaMAIL!/WC v1.60d
 * Origin: Chowdanet (401-724-4410) telnet://chowdanet.com  (1:323/120)